Probability
0 0 0 0 0 0 0 0 0 0 0 0 0 0 0 0 0 0 0 0 0 0 0 0 0 0 0 0 0 0 0 0 0 0 0 0 0 1 2 2 1 0 0 0
0 0 0 0 0 0 0 0 0 0 0 0 0 0 0 0 0 0 0 0 0 0 0 0 0 0 0 0 0 0 0 0 0 0 0 0 0 0 1 1 0 0 0 0
0 0 0 0 0 0 0 0 0 0 0 0 0 0 0 0 0 0 0 0 0 0 0 0 0 0 0 0 0 0 0 0 0 0 0 0 0 0 0 0 0 0 0 0
0 0 0 0 0 0 0 0 0 0 0 0 0 0 0 0 0 0 0 0 0 0 0 0 0 0 0 0 0 0 0 0 0 0 0 0 0 0 0 0 0 0 0 0
0 0 0 0 0 0 0 0 0 0 0 0 0 0 0 0 0 0 0 0 0 0 0 0 0 0 0 0 0 0 0 0 0 0 0 0 0 0 0 0 0 0 0 0
0 0 0 0 0 0 0 0 0 0 0 0 0 0 0 0 0 0 0 0 0 0 0 0 0 0 0 0 0 0 0 0 0 0 0 0 0 0 0 0 0 0 0 0
0 0 0 0 0 0 0 0 0 0 0 0 0 0 0 0 0 0 0 0 0 0 0 0 0 0 0 0 0 0 0 0 0 0 0 0 0 0 0 0 0 0 0 0
0 0 0 0 0 0 0 0 0 0 0 0 0 0 0 0 0 0 0 0 0 0 0 0 0 0 0 0 0 0 0 0 0 0 0 0 0 0 0 0 0 0 0 0
0 0 0 0 0 0 0 0 0 0 0 0 0 0 0 0 0 0 0 0 0 0 0 0 0 0 0 0 0 0 0 0 0 0 0 0 0 0 0 0 0 0 0 0
0 0 0 0 0 0 0 0 0 0 0 0 0 0 0 0 0 0 0 0 0 0 0 0 0 0 0 0 0 0 0 0 0 0 0 0 0 0 0 0 0 0 0 0
0 0 0 0 0 0 0 0 0 0 0 0 0 0 0 0 0 0 0 0 0 0 0 0 0 0 0 0 0 0 0 0 0 0 0 0 0 0 0 0 0 0 0 0
0 0 0 0 0 0 0 0 0 0 0 0 0 0 0 0 0 0 0 0 0 0 0 0 0 0 0 0 0 0 0 0 0 0 0 0 0 0 0 0 0 0 0 0
0 0 0 0 0 0 0 0 0 0 0 0 0 0 0 0 0 0 0 0 0 0 0 0 0 0 0 0 0 0 0 0 0 0 0 0 0 0 0 0 0 0 0 0
0 0 0 0 0 0 0 0 0 0 0 0 0 0 0 0 0 0 0 0 0 0 0 0 0 0 0 0 0 0 0 0 0 0 0 0 0 0 0 0 0 0 0 0
0 0 0 0 0 0 0 0 0 0 0 0 0 0 0 0 0 0 0 0 0 0 0 0 0 0 0 0 0 0 0 0 0 0 0 0 0 0 0 0 0 0 0 0
0 0 0 0 0 0 0 0 0 0 0 0 0 0 0 0 0 0 0 0 0 0 0 0 0 0 0 0 0 0 0 0 0 0 0 0 0 0 0 0 0 0 0 0
0 0 0 0 0 0 0 0 0 0 0 0 0 0 0 0 0 0 0 0 0 0 0 0 0 0 0 0 0 0 0 0 0 0 0 0 0 0 0 0 0 0 0 0
0 0 0 0 0 0 0 0 0 0 0 0 0 0 0 0 0 0 0 0 0 0 0 0 0 0 0 0 0 0 0 0 0 0 0 0 0 0 0 0 0 0 0 0
0 0 0 0 0 0 0 0 0 0 0 0 0 0 0 0 0 0 0 0 0 0 0 0 0 0 0 0 0 0 0 0 0 0 0 0 0 0 0 0 0 0 0 0
0 0 0 0 0 0 0 0 0 0 0 0 0 0 0 0 0 0 0 0 0 0 0 0 0 0 0 0 0 0 0 0 0 0 0 0 0 0 0 0 0 0 0 0
0 0 0 0 0 0 0 0 0 0 0 0 0 0 0 0 0 0 0 0 0 0 0 0 0 0 0 0 0 0 0 0 0 0 0 0 0 0 0 0 0 0 0 0
0 0 0 0 0 0 0 0 0 0 0 0 0 0 0 0 0 0 0 0 0 0 0 0 0 0 0 0 0 0 0 0 0 0 0 0 0 0 0 0 0 0 0 0
0 0 0 0 0 0 0 0 0 0 0 0 0 0 0 0 0 0 0 0 0 0 0 0 0 0 0 0 0 0 0 0 0 0 0 0 0 0 0 0 0 0 0 0
0 0 0 0 0 0 0 0 0 0 0 0 0 0 0 0 0 0 0 0 0 0 0 0 0 0 0 0 0 0 0 0 0 0 0 0 0 0 0 0 0 0 0 0
0 0 0 0 0 0 0 0 0 0 0 0 0 0 0 0 0 0 0 0 0 0 0 0 0 0 0 0 0 0 0 0 0 0 0 0 0 0 0 0 0 0 0 0
0 0 0 0 0 0 0 0 0 0 0 0 0 0 0 0 0 0 0 0 0 0 0 0 0 0 0 0 0 0 0 0 0 0 0 0 0 0 0 0 0 0 0 0
Wind_Speed
1 3 5 6 6 5 5 7 10 7 3 5 10 14 14 10 7 8 7 6 6 7 6 4 4 4 4 4 5 6 7 7 6 5 5 4 4 4 3 3 4 5 4 4
3 6 5 3 4 5 6 8 9 5 2 5 9 14 12 8 8 8 8 7 7 6 4 3 3 3 4 5 5 6 6 6 6 5 4 3 3 3 3 3 4 5 5 4
7 2 2 4 4 6 7 8 8 6 5 4 8 10 8 5 5 6 6 6 5 6 5 4 3 3 4 4 5 5 6 6 6 6 4 3 3 2 3 3 3 4 5 5
6 3 3 5 6 6 8 5 6 6 6 4 3 8 6 4 5 5 4 4 4 4 4 4 3 3 4 4 3 4 5 5 5 6 6 7 5 5 4 3 3 4 5 5
4 3 4 6 5 6 4 1 4 5 6 6 4 7 7 2 6 5 5 4 4 4 3 3 3 3 2 2 2 3 3 4 4 5 7 7 6 4 3 3 4 4 4 5
3 2 3 3 1 3 2 1 1 2 4 6 6 7 8 4 5 5 4 3 3 2 2 2 1 1 1 1 1 2 3 3 3 4 6 7 7 6 5 5 5 4 4 4
3 3 2 1 2 3 3 2 2 2 3 5 3 7 10 5 5 5 5 3 2 2 1 1 0 0 0 0 0 1 2 2 2 4 5 6 7 7 7 6 5 5 4 4
4 5 4 3 3 4 6 5 4 4 5 4 3 8 6 3 4 4 4 4 2 2 1 1 1 1 1 0 0 1 1 1 1 2 3 4 5 4 4 5 4 4 4 4
5 4 1 2 2 4 5 5 2 2 1 5 6 6 7 4 4 4 3 2 2 2 1 1 1 1 1 1 0 1 1 1 1 2 2 2 3 4 4 4 4 4 4 3
4 4 1 1 2 2 3 3 4 4 4 7 7 6 5 4 4 3 2 2 2 2 1 1 1 1 1 1 1 1 1 1 1 1 1 1 2 3 3 3 4 4 4 4
3 3 1 2 6 6 5 5 5 4 4 5 6 5 2 4 3 3 3 3 2 2 2 2 2 1 1 1 0 1 1 1 1 1 1 2 2 2 3 3 4 4 4 4
4 3 4 4 1 3 6 6 7 5 5 5 6 7 1 2 3 3 3 3 2 2 2 2 2 2 1 1 1 1 1 1 1 1 1 2 2 2 3 3 3 3 4 4
5 4 2 2 3 3 5 6 6 3 3 5 7 7 1 2 4 3 3 3 3 3 3 2 2 2 2 2 2 1 2 2 1 1 1 2 2 2 3 3 3 3 3 3
4 5 7 8 3 4 6 7 8 7 7 8 11 12 7 6 6 5 4 3 3 3 2 3 3 3 3 2 2 2 2 2 2 1 2 2 2 3 3 3 3 3 3 3
4 6 6 8 6 5 8 9 11 13 12 11 11 12 11 7 6 6 4 4 3 3 3 3 3 3 3 3 2 2 2 2 2 2 2 2 2 2 2 2 2 2 3 3
4 5 3 6 5 6 9 12 13 15 14 14 14 14 8 7 5 5 4 4 5 5 5 4 4 3 3 3 3 2 2 2 2 2 2 2 2 2 2 2 2 2 3 3
5 5 4 5 1 3 11 12 13 10 10 10 13 11 6 6 6 6 5 5 5 5 5 5 5 4 4 3 3 3 2 2 2 2 2 2 2 2 2 2 2 3 3 3
7 6 3 2 1 11 6 2 7 9 9 10 10 8 7 6 6 4 3 4 5 6 6 5 4 4 4 3 2 2 1 1 2 2 2 2 2 3 2 2 2 3 2 3
8 7 5 4 6 10 8 4 5 7 7 6 9 10 8 4 4 4 2 3 5 5 5 4 4 4 3 2 2 1 1 1 2 2 3 3 3 3 3 3 3 2 2 2
6 6 6 6 7 10 5 1 2 3 6 2 4 7 6 2 5 3 4 4 4 4 4 3 3 3 3 3 1 1 2 2 2 3 3 3 3 3 3 3 3 2 2 3
7 7 10 10 10 10 5 1 4 7 4 1 2 4 3 4 5 5 6 5 4 4 4 3 3 3 3 3 1 2 2 3 3 3 2 2 3 3 3 3 2 2 2 2
10 9 9 8 10 11 1 4 6 2 2 1 2 3 4 5 6 5 5 5 5 4 3 3 3 3 3 3 2 2 3 3 3 2 2 3 3 2 2 2 2 2 2 2
8 8 6 9 7 1 3 3 1 1 2 3 4 4 4 5 6 6 5 5 4 4 4 3 3 4 4 3 2 3 4 3 2 2 3 3 3 2 2 2 2 2 2 2
5 3 4 5 7 4 3 2 2 2 3 3 4 5 5 6 6 6 5 5 5 4 4 3 3 4 4 4 3 3 4 3 2 2 3 3 3 3 2 2 2 2 2 3
4 4 5 6 5 4 4 4 4 3 2 3 4 4 5 5 6 6 5 5 4 4 4 3 3 4 5 5 4 4 3 3 3 3 3 3 3 3 3 3 3 3 3 4
4 5 6 6 4 5 4 2 2 3 4 4 4 5 4 4 5 5 5 5 4 4 4 4 4 4 5 5 5 4 3 3 3 3 3 3 2 2 3 3 4 5 5 7
Wind_Direction
143 201 220 227 227 256 254 254 268 276 295 273 263 272 276 273 260 262 264 261 259 264 271 270 258 238 226 220 216 212 205 199 190 185 190 192 195 193 191 190 186 189 186 185
184 227 238 239 222 227 242 259 269 277 284 274 282 278 273 265 254 253 257 259 263 268 273 269 254 231 223 218 214 212 210 203 198 197 193 195 194 197 194 191 191 192 188 186
216 231 207 203 215 229 242 250 266 280 302 249 287 271 253 245 244 248 250 256 261 260 261 256 240 234 227 225 220 212 207 206 202 196 183 172 179 183 192 195 196 194 193 190
233 226 194 212 222 226 247 241 259 268 280 277 296 286 266 257 262 254 255 254 260 264 263 258 247 239 235 234 224 216 205 201 199 194 196 196 201 206 205 200 201 194 194 193
220 203 208 221 229 219 250 283 247 252 252 267 239 262 270 247 258 262 259 253 259 262 257 256 253 247 245 239 219 211 198 198 195 200 204 208 213 215 205 199 200 202 195 196
242 213 237 240 243 210 193 208 192 205 227 252 234 244 267 233 248 269 268 266 270 263 253 262 297 310 285 264 214 204 192 195 196 206 207 209 211 208 204 205 205 206 201 196
235 214 204 205 183 177 207 221 252 245 235 248 196 239 256 253 250 267 288 306 308 294 259 254 292 268 283 271 209 194 190 195 204 212 212 214 216 214 215 215 212 211 210 206
228 232 193 200 215 204 205 219 220 253 263 276 209 242 259 262 264 271 287 301 322 341 331 300 285 269 255 233 205 172 188 204 216 215 216 219 220 220 222 223 222 222 223 224
219 236 131 201 254 210 193 212 249 235 266 272 254 260 274 244 246 254 282 316 315 330 341 313 292 273 270 253 228 211 207 218 229 229 219 221 224 225 228 229 230 230 227 226
207 234 230 232 202 226 254 181 181 206 245 265 270 255 257 246 256 267 315 313 324 347 354 334 311 297 288 281 266 232 231 232 241 237 226 234 231 232 233 232 233 234 233 226
199 211 223 208 212 206 184 196 208 206 232 245 272 269 253 254 306 314 311 317 329 339 328 331 330 316 309 317 273 250 249 249 257 253 241 235 237 235 236 238 238 236 236 231
185 205 240 232 237 295 235 222 203 219 227 231 258 270 51 270 309 314 316 321 327 335 328 327 325 327 323 323 307 279 271 264 271 273 260 256 257 247 243 245 246 241 237 234
162 181 232 239 201 203 231 227 222 229 212 218 234 256 82 328 324 332 315 319 326 330 331 331 333 332 321 316 312 307 301 292 284 272 264 260 261 261 261 260 256 247 240 239
167 199 221 240 260 191 224 225 212 208 223 232 237 259 277 305 319 322 319 312 315 316 320 326 327 320 314 309 308 307 306 306 299 281 265 266 271 271 269 267 264 257 247 239
183 222 234 260 274 252 243 237 218 220 229 237 250 253 272 288 296 303 308 307 309 312 312 308 310 312 309 306 302 299 302 303 293 276 270 276 283 281 277 272 270 268 254 247
190 221 227 256 248 252 258 249 231 232 238 246 263 270 272 281 280 286 294 296 296 298 300 302 304 302 295 293 293 289 286 289 275 266 275 290 289 280 273 272 271 268 263 255
183 182 202 245 273 276 255 236 217 216 223 230 245 259 278 274 276 279 286 290 289 294 300 298 295 295 292 288 284 278 281 279 266 269 284 294 285 275 273 273 268 262 261 256
180 181 204 239 193 238 245 176 210 220 237 233 247 266 276 278 287 288 289 298 303 305 304 301 299 297 299 294 291 288 280 266 267 275 282 291 287 280 277 266 263 266 262 257
199 186 192 202 238 264 270 230 196 212 246 237 241 261 279 291 277 269 300 305 297 301 303 300 300 300 303 294 287 276 272 271 273 283 289 290 281 274 270 268 269 269 268 267
196 198 201 201 225 243 250 161 195 199 245 234 236 262 277 268 263 296 357 336 323 321 318 318 320 316 311 307 290 261 273 280 285 292 294 293 281 269 263 264 270 275 268 270
178 196 210 217 235 257 274 228 175 207 245 65 245 270 272 252 279 324 332 331 331 330 328 329 322 312 309 306 278 266 278 287 298 301 297 296 287 279 274 274 275 277 275 276
187 189 201 202 221 243 162 159 204 251 10 350 321 304 286 283 299 307 316 321 326 327 329 330 322 316 317 315 284 280 289 302 309 304 297 296 296 290 284 278 280 276 273 274
210 206 202 205 221 270 151 187 180 23 309 315 316 316 303 295 298 307 310 312 315 313 315 321 317 315 320 321 299 284 300 313 310 307 299 298 300 291 284 274 273 269 264 269
226 225 209 234 249 246 234 228 254 269 278 297 306 308 305 296 298 303 307 310 312 309 309 314 314 314 318 324 316 301 309 312 298 290 294 300 298 294 287 275 265 262 257 261
231 195 211 238 260 266 246 243 255 263 281 300 307 303 298 296 297 299 302 305 305 305 305 304 301 303 309 318 315 314 311 309 293 287 290 292 289 292 289 281 271 269 266 262
209 209 221 244 245 243 260 251 264 271 286 297 303 307 311 302 295 299 298 300 301 301 304 305 306 305 307 313 314 318 314 303 291 284 286 285 286 286 286 289 290 279 277 283